Location: Hac?musa Deresi
(39.1694°N, 32.2508°E)
Time: 22:24:22
(UTC+00:00)

USA 238 - Pass Details

Date: 22 April 2026
Orbit: 883 x 1328 km, 63.4° (Epoch: 10 January)

Event Time Altitude Azimuth Distance (km) Brightness Sun altitude
Rises 16:52:49 0° 328° (NNW) 3,998 7.6 -4.1°
Reaches altitude 10° 16:55:29 10° 332° (NNW) 3,095 6.9 -4.6°
Maximum altitude 17:02:57 62° 53° (NE) 1,393 4.2 -5.9°
Drops below altitude 10° 17:11:00 10° 133° (SE) 3,328 5.7 -7.4°
Enters shadow 17:12:12 - 135° (SE) 3,729 5.9 -7.6°
